Weather History for TDPD - November, 2013

Change the Weather History Date:

Monday, November 18, 2013

  Actual Average Record
Temperature  
Mean Temperature 78 °F -  
Max Temperature 84 °F 82 °F 87 °F (2012)
Min Temperature 72 °F 73 °F 71 °F (2005)
Cooling Degree Days 13    
Growing Degree Days 28 (Base 50)    
Moisture  
Dew Point 73 °F    
Average Humidity 81    
Maximum Humidity 94    
Minimum Humidity 67    
Precipitation  
Precipitation 0.04 in 0.39 in - ()
Sea Level Pressure  
Sea Level Pressure 29.78 in    
Wind  
Wind Speed 5 mph ()    
Max Wind Speed 16 mph    
Max Gust Speed -    
Visibility 8.4 miles    
Events Rain    
Averages and records for this station are not official NWS values.
T = Trace of Precipitation, MM = Missing Value Source: Averaged Metar Reports

Daily Weather History Graph

Daily Weather History Graph

Search for Another Location

Airport or City:

Trip Planner

Search our weather history database for the weather conditions in past years. The results will help you decide how hot, cold, wet, or windy it might be!

Date:

Astronomy

Nov. 18, 2013 Rise Set
Actual Time 6:09 AM AST 5:31 PM AST
Civil Twilight 5:46 AM AST 5:54 PM AST
Nautical Twilight 5:20 AM AST 6:20 PM AST
Astronomical Twilight 4:54 AM AST 6:46 PM AST
Moon 6:32 PM AST (11/18) 6:52 AM AST (11/18)
Length of Visible Light 12h 08m
Length of Day
11h 22m
Full, 99% of the Moon is Illuminated
Nov 18
Full
Nov 25
Last Quarter
Dec 2
New
Dec 9
First Quarter
Dec 17
Full

Hourly Weather History & Observations

Time (AST) Temp. Heat Index Dew Point Humidity Pressure Visibility Wind Dir Wind Speed Gust Speed Precip Events Conditions
6:00 AM 73.4 °F - 71.6 °F 94% 29.77 in 6.2 mi West 8.1 mph - N/A   Scattered Clouds
7:00 AM 75.2 °F - 71.6 °F 89% 29.77 in 6.2 mi West 8.1 mph - N/A   Mostly Cloudy
8:00 AM 78 °F - 74 °F 83% 29.81 in 17 mi West 15.7 mph - -   Partly Cloudy
8:00 AM 77.0 °F - 73.4 °F 89% 29.80 in 6.2 mi West 8.1 mph - N/A   Mostly Cloudy
9:00 AM 84.2 °F 92.3 °F 75.2 °F 74% 29.83 in 6.2 mi West 3.5 mph - N/A   Mostly Cloudy
10:00 AM 84.2 °F 90.9 °F 73.4 °F 70% 29.83 in 6.2 mi ENE 4.6 mph - N/A   Scattered Clouds
11:00 AM 82 °F - 73 °F 67% 29.83 in 15 mi ENE 8.9 mph - -   Mostly Cloudy
11:00 AM 82.4 °F 88.2 °F 73.4 °F 74% 29.83 in 6.2 mi ENE 4.6 mph - N/A   Mostly Cloudy
12:00 PM 82.4 °F 87.2 °F 71.6 °F 70% 29.80 in 6.2 mi ENE 3.5 mph - N/A   Mostly Cloudy
1:00 PM 82.4 °F 87.2 °F 71.6 °F 70% 29.77 in 6.2 mi ESE 6.9 mph - N/A   Mostly Cloudy
2:00 PM 82 °F - 76 °F 76% 29.77 in 15 mi SSW 4.5 mph - - Rain Light Rain Showers
2:00 PM 82.4 °F 89.5 °F 75.2 °F 79% 29.77 in 6.2 mi SSW 2.3 mph - N/A   Mostly Cloudy
2:11 PM 82.4 °F 89.5 °F 75.2 °F 79% 29.77 in 6.2 mi SSW 2.3 mph - N/A Rain Light Rain Showers
3:00 PM 80.6 °F 85.4 °F 73.4 °F 79% 29.74 in 6.2 mi SE 3.5 mph - N/A   Scattered Clouds
4:00 PM 80.6 °F 84.6 °F 71.6 °F 74% 29.74 in 6.2 mi SE 2.3 mph - N/A   Scattered Clouds
5:00 PM 80 °F - 74 °F 76%  in 16 mi South 2.2 mph - -   Clear
5:00 PM 80.6 °F 85.4 °F 73.4 °F 79% 29.74 in 6.2 mi South 1.2 mph - N/A   Partly Cloudy
6:00 PM 77.0 °F - 73.4 °F 89% 29.74 in 6.2 mi West 4.6 mph - N/A   Partly Cloudy
7:00 PM 75.2 °F - 73.4 °F 94% 29.77 in 6.2 mi West 4.6 mph - N/A   Partly Cloudy
8:00 PM 74 °F - 71 °F 89% 29.80 in 17 mi WSW 3.5 mph - -   Partly Cloudy
8:00 PM 73.4 °F - 71.6 °F 94% 29.77 in 6.2 mi WSW 3.5 mph - N/A   Partly Cloudy
9:00 PM 73.4 °F - 71.6 °F 94% 29.80 in 6.2 mi West 5.8 mph - N/A   Partly Cloudy